User: anonymous   Login
Location: Gugi
(45.4667°N, 11.1000°E)
Time: 18:13:44
(UTC+00:00)
Language:

Cosmos 2263 Rocket - Orbit

View from above orbital plane
View from above orbital plane
View from above satellite
View from above satellite

Ground track
Ground track

The orbit data is extracted from the following two-line orbital elements,

1 22803U 93059B   21026.64362786  .00000190  00000-0  11833-3 0  9993
2 22803  70.9916 348.9089 0017327 183.9618 176.1372 14.16830595414914
Epoch (UTC): 26 January 2021 15:26:49
Eccentricity: 0.0017327
inclination: 70.9916°
perigee height: 823 km
apogee height: 848 km
right ascension of ascending node: 348.9089°
argument of perigee: 183.9618°
revolutions per day: 14.16830595
mean anomaly at epoch: 176.1372°
orbit number at epoch: 41491

The dashed part of the orbit path shows where the satellite is in the earth's shadow,  

DLR